Location: Byhalia Creek
(34.8270°N, 89.8040°W)
Time: 08:16:08
(UTC+00:00)

TSX-5 - Pass Details

Date: 22 April 2026
Orbit: 387 x 998 km, 68.9° (Epoch: 15 May)

Event Time Altitude Azimuth Distance (km) Brightness Sun altitude
Rises 10:31:35 0° 342° (NNW) 2,282 7.0 -10.0°
Reaches altitude 10° 10:33:37 10° 349° (NNW) 1,420 6.1 -9.6°
Maximum altitude 10:36:36 47° 65° (ENE) 532 4.3 -9.0°
Drops below altitude 10° 10:39:42 10° 141° (SE) 1,487 6.3 -8.4°
Sets 10:41:53 0° 147° (SSE) 2,408 7.3 -8.0°
